This demonstration page uses our WeatherBlox Daily Observations layout. Learn more.

Left ArrowRight Arrow

Hourly Observations for January 1, 2017

Temp ( °F °C ) Dew Point ( °F °C ) Humidity (%) Winds ( mph kmh ) Pressure ( in mb ) Visibility ( mi km ) Precip ( " mm )
12:53 am 00:53 Mostly Cloudy 51 10.6 48 8.9 89 89 SW 7 11 29.79 1009 10 16 0.00 0.03
1:53 am 01:53 Partly Cloudy 50 10 46 7.8 86 86 WSW 8 13 29.78 1008 10 16 0.00 0.00
2:53 am 02:53 Clear 47 8.3 45 7.2 93 93 Calm 29.79 1009 10 16 0.00 0.00
3:53 am 03:53 Clear 46 7.8 44 6.7 93 93 W 6 9 29.81 1009 10 16 0.00 0.00
4:53 am 04:53 Clear 45 7.2 43 6.1 93 93 SW 5 7 29.81 1009 10 16 0.00 0.00
5:53 am 05:53 Mostly Clear 47 8.3 43 6.1 86 86 SSW 3 6 29.80 1009 10 16 0.00 0.00
6:53 am 06:53 Clear 43 6.1 41 5 93 93 SE 5 7 29.80 1009 10 16 0.00 0.00
7:53 am 07:53 Sunny 41 5 40 4.4 96 96 S 9 15 29.83 1010 10 16 0.00 0.00
8:53 am 08:53 Sunny 47 8.3 43 6.1 86 86 Calm 29.83 1010 10 16 0.00 0.00
9:53 am 09:53 Partly Cloudy 53 11.7 45 7.2 74 74 SW 9 15 29.81 1010 10 16 0.00 0.00
10:53 am 10:53 Sunny 59 15 44 6.7 58 58 SSW 12 19 29.81 1009 10 16 0.00 0.00
11:53 am 11:53 Sunny 63 17.2 43 6.1 48 48 SW 12 19 29.78 1009 10 16 0.00 0.00
12:53 pm 12:53 Sunny 65 18.3 43 6.1 45 45 SW 13 20 29.74 1007 10 16 0.00 0.00
1:53 pm 13:53 Sunny 66 18.9 41 5 40 40 SSW 8 13 29.69 1006 10 16 0.00 0.00
2:53 pm 14:53 Sunny 68 20 39 3.9 35 35 VRB 6 9 29.66 1004 10 16 0.00 0.00
3:53 pm 15:53 Sunny 69 20.6 39 3.9 33 33 S 5 7 29.63 1004 10 16 0.00 0.00
4:53 pm 16:53 Mostly Sunny 68 20 39 3.9 35 35 S 5 7 29.63 1003 10 16 0.00 0.00
5:53 pm 17:53 Cloudy 64 18 43 6 46 46 NW 7 11 29.71 1006 10 16 0.00 0.00
6:53 pm 18:53 Mostly Clear 58 14.4 41 5 53 53 ESE 8 13 29.61 1003 10 16 0.00 0.00
7:53 pm 19:53 Cloudy 53 11.7 44 6.7 72 72 NW 29 46 29.76 1008 8 13 0.00 0.00
8:53 pm 20:53 Cloudy with Light Rain 50 10 48 8.9 93 93 NW 21 33 29.80 1009 10 16 0.04 1.02
9:53 pm 21:53 Cloudy with Light Rain 50 10 48 8.9 93 93 NW 3 6 29.78 1009 5 8 0.10 2.54
10:53 pm 22:53 Mostly Cloudy 49 9.4 48 8.9 97 97 SSE 8 13 29.78 1008 10 16 0.00 0.03
11:53 pm 23:53 Clear 49 9.4 47 8.3 93 93 SW 10 17 29.78 1008 10 16 0.00 0.00

Powered by AerisWeather